“In life, you're either a passenger or a pilot. It’s your choice.”

WELCOME TO YOUR AVIATION DREAM!

What's new Up There Icon

WHAT’S NEW HERE?

4000+ aviation terms, acronyms and definitions!
Make your study a little easier with the aviation glossaries that gather over 4000 terms and acronyms extracted from weather, communications, technical and more general topics…
Partnership Icon

PARTNESHIP ANNOUNCEMENT

I am proud to announce a partnership with nizul Logo, study partner of every pilot who wants to consolidate their ground school knowledge and master their written examination.

Try Me Icon

ALL YOURS FOR 30 MINUTES!

Not sure you’d get along with a freelance instructor? How about giving it a try with a 30 minute flight?
My treat! All free.

Resources Tool Box

STUDENT RESOURCES

As a registered student training with me, you get access to a whole lot of files, tools, documents, aviation glossaries, videos, quizzes, sample tests, etc… 

Control Tower Icon

QUESTIONS? CHECK F.A.Q.

In aviation, the only stupid question is the one you didn’t ask. And there is a big chance yours has already been answered in the FAQ. Check it out!

Brain Icon

ARE YOU WIRED FOR FLYING?

Flying an aircraft is usually not the most difficult part of the “problem” and it takes a certain mindset to deal with the other aspects of a flight. Find out wether…

THEY DID IT!

Meet those who refused to be the passengers of their lives, and learn about their experience.

QUICK FACTS

Aviation is a world of serious numbers.
Here are my own, and they count as much as the other ones.

0
YEARS OF
WISDOM
0
YEARS OF
SKY FUN
0
AMAZING
STUDENTS
0
HOURS OF
PURE EXCITEMENT

Grow some wings,
Come fly with me!

Vancouver Island Weather

METARs and TAFs.
VICTORIA INTL (CYYJ)
METAR:

CYYJ 311400Z 15003KT 100V160 20SM SCT150 BKN190 BKN220 17/11 A3000 RMK AC3AC2CI2 SLP159 DENSITY ALT 300FT

TAF:

TAF CYYJ 311138Z 3112/0112 VRB03KT P6SM BKN220 FM311800 12008KT P6SM BKN180 TEMPO 3118/3122 P6SM VCSH BKN150 BECMG 0103/0105 VRB03KT RMK NXT FCST BY 311800Z

NANAIMO (CYCD)
METAR:

CYCD 311400Z VRB02KT 30SM SCT200 BKN230 20/11 A2999 RMK CC4CI3 SLP158 DENSITY ALT 600FT

TAF:

TAF CYCD 301738Z 3018/3104 VRB03KT P6SM SKC FM302000 02007KT P6SM FEW040 RMK NXT FCST BY 310000Z

LONG BEACH (CYAZ)
METAR:

CYAZ 311400Z 32007KT 1/2SM FG OVC002 12/12 A3004 RMK FG4SF4 SLP174

TAF:

TAF CYAZ 301838Z 3019/3101 15005KT P6SM FEW008 BECMG 3019/3021 29010KT RMK NXT FCST WILL BE ISSUED AT 311445Z

For more in-depth weather information, please, check Collaborative Flight Planning Service

For all Runway conditions in CYYJ, please check

IIDS Web View

Windy’s Forecast & Observations